GW1618 Weather Reports


time (UTC)temp
C
wind
direction
speed
KPH
gust
KPH
rain 1hr
cm
rain 24hr
cm
rain mn
cm
humidity
%
barometer
mb
20260508102634 9 231 4.8 8.0 0.00 0.00 0.00 80 1016.5
20260508102132 9 222 4.8 8.0 0.00 0.00 0.00 80 1016.5
20260508101631 9 247 3.2 8.0 0.00 0.00 0.00 80 1016.5
20260508101134 9 257 3.2 6.4 0.00 0.00 0.00 80 1016.5
20260508100629 9 204 3.2 6.4 0.00 0.00 0.00 80 1016.5
20260508100121 10 222 4.8 8.0 0.00 0.00 0.00 80 1016.5
20260508095617 10 245 6.4 8.0 0.00 0.00 0.00 80 1016.5
20260508095117 10 245 6.4 8.0 0.00 0.00 0.00 79 1016.5
20260508094612 10 266 4.8 8.0 0.00 0.00 0.00 79 1016.5
20260508094105 10 264 4.8 8.0 0.00 0.00 0.00 79 1016.5
20260508093602 10 271 4.8 9.7 0.00 0.00 0.00 79 1016.5
20260508093102 10 258 4.8 9.7 0.00 0.00 0.00 79 1016.5
20260508092603 10 270 4.8 8.0 0.00 0.00 0.00 79 1016.5
20260508092353 10 244 3.2 6.4 0.00 0.00 0.00 80 1016.4
20260508091604 10 261 1.6 4.8 0.00 0.00 0.00 80 1016.4
20260508091346 10 217 0.0 3.2 0.00 0.00 0.00 80 1016.4
20260508090606 10 292 1.6 3.2 0.00 0.00 0.00 80 1016.4
20260508090059 10 292 1.6 3.2 0.00 0.00 0.00 80 1016.4
20260508085542 10 292 1.6 3.2 0.00 0.00 0.00 80 1016.4
20260508085315 10 344 1.6 3.2 0.00 0.00 0.00 79 1016.4
20260508084532 10 344 1.6 3.2 0.00 0.00 0.00 78 1016.4
20260508084025 10 324 0.0 3.2 0.00 0.00 0.00 78 1016.4
20260508083522 10 324 1.6 3.2 0.00 0.00 0.00 78 1016.3
20260508083023 10 324 3.2 3.2 0.00 0.00 0.00 77 1016.3
20260508082522 10 304 3.2 3.2 0.00 0.00 0.00 77 1016.3
20260508082021 10 310 1.6 3.2 0.00 0.00 0.00 77 1016.3
20260508081521 10 328 0.0 3.2 0.00 0.00 0.00 77 1016.3
20260508081017 10 345 0.0 1.6 0.00 0.00 0.00 76 1016.3
20260508080507 10 345 0.0 1.6 0.00 0.00 0.00 76 1016.1
20260508080004 10 345 1.6 3.2 0.00 0.00 0.00 76 1016.1
20260508075504 10 345 1.6 3.2 0.00 0.00 0.00 76 1016.1
20260508075002 10 345 3.2 6.4 0.00 0.00 0.00 76 1016.1
20260508074456 10 359 4.8 6.4 0.00 0.00 0.00 75 1016.1
20260508073953 10 339 4.8 6.4 0.00 0.00 0.00 76 1016.1
20260508073444 11 347 4.8 8.0 0.00 0.00 0.00 76 1016.1
20260508072946 11 4 4.8 8.0 0.00 0.00 0.00 76 1016.1
20260508072729 11 348 4.8 8.0 0.00 0.00 0.00 76 1016.1
20260508071942 11 352 4.8 8.0 0.00 0.00 0.00 75 1016.1
20260508071440 11 355 4.8 6.4 0.00 0.00 0.00 75 1016.1
20260508071231 11 340 4.8 6.4 0.00 0.00 0.00 75 1016.1
20260508070441 11 325 3.2 6.4 0.00 0.00 0.00 74 1016.2
20260508065941 11 339 4.8 8.0 0.00 0.00 0.00 74 1016.2
20260508065441 11 346 4.8 8.0 0.00 0.00 0.00 73 1016.2
20260508064935 11 348 3.2 6.4 0.00 0.00 0.00 73 1016.2
20260508064435 11 359 3.2 6.4 0.00 0.00 0.00 73 1016.2
20260508063935 11 350 4.8 6.4 0.00 0.00 0.00 72 1016.2
20260508063446 11 346 3.2 6.4 0.00 0.00 0.00 72 1016.1
20260508062429 12 325 4.8 6.4 0.00 0.00 0.00 72 1016.1
20260508062219 12 313 4.8 8.0 0.00 0.00 0.00 71 1016.2
20260508061423 12 323 6.4 9.7 0.00 0.00 0.00 71 1016.2
20260508060926 12 354 8.0 11.3 0.00 0.00 0.00 71 1016.2
20260508060422 12 340 6.4 11.3 0.00 0.00 0.00 70 1016.2
20260508060219 12 337 4.8 8.0 0.00 0.00 0.00 70 1016.2
20260508055422 12 331 4.8 8.0 0.00 0.00 0.00 70 1016.2
20260508054928 12 344 3.2 6.4 0.00 0.00 0.00 69 1016.2
20260508054423 12 9 1.6 4.8 0.00 0.00 0.00 69 1016.2
20260508053920 13 36 3.2 6.4 0.00 0.00 0.00 69 1016.2
20260508053417 13 9 4.8 8.0 0.00 0.00 0.00 68 1016.2
20260508053159 13 30 4.8 8.0 0.00 0.00 0.00 69 1016.2
20260508052656 13 36 3.2 6.4 0.00 0.00 0.00 68 1016.2
20260508051908 13 32 3.2 4.8 0.00 0.00 0.00 67 1016.2
20260508051405 13 41 3.2 8.0 0.00 0.00 0.00 67 1016.2
20260508050903 13 57 3.2 8.0 0.00 0.00 0.00 67 1016.2
20260508050403 13 62 3.2 8.0 0.00 0.00 0.00 66 1016.2
20260508045901 13 65 1.6 6.4 0.00 0.00 0.00 66 1016.2
20260508045721 13 325 3.2 6.4 0.00 0.00 0.00 66 1016.2
20260508044648 13 53 3.2 6.4 0.00 0.00 0.00 65 1016.2
20260508043859 13 279 3.2 6.4 0.00 0.00 0.00 65 1016.2
20260508043353 13 326 3.2 8.0 0.00 0.00 0.00 65 1016.2
20260508042843 14 320 4.8 8.0 0.00 0.00 0.00 65 1016.2
20260508042627 14 290 6.4 12.9 0.00 0.00 0.00 65 1016.2
20260508041905 14 321 8.0 14.5 0.00 0.00 0.00 65 1016.2
20260508041122 14 316 9.7 17.7 0.00 0.00 0.00 63 1016.2
20260508040338 15 298 11.3 17.7 0.00 0.00 0.00 63 1016.0
20260508035837 15 314 12.9 17.7 0.00 0.00 0.00 62 1016.0
20260508035340 15 318 12.9 20.9 0.00 0.00 0.00 62 1016.0
20260508034838 15 325 12.9 20.9 0.00 0.00 0.00 61 1016.0
20260508034617 15 321 11.3 17.7 0.00 0.00 0.00 61 1016.0
20260508034123 15 321 8.0 14.5 0.00 0.00 0.00 61 1016.0
20260508033333 15 319 8.0 11.3 0.00 0.00 0.00 61 1016.0
20260508032833 15 320 8.0 14.5 0.00 0.00 0.00 59 1016.0
20260508032333 16 322 8.0 14.5 0.00 0.00 0.00 59 1016.0
20260508031831 16 316 8.0 16.1 0.00 0.00 0.00 59 1016.0
20260508031332 16 319 9.7 16.1 0.00 0.00 0.00 58 1016.0
20260508030831 16 336 11.3 16.1 0.00 0.00 0.00 57 1016.0
20260508030331 16 4 9.7 16.1 0.00 0.00 0.00 56 1015.8
20260508025834 16 329 4.8 12.9 0.00 0.00 0.00 57 1015.8
20260508025611 16 38 3.2 6.4 0.00 0.00 0.00 57 1015.8
20260508024831 16 354 4.8 8.0 0.00 0.00 0.00 55 1015.8
20260508024330 16 354 4.8 9.7 0.00 0.00 0.00 55 1015.8
20260508023829 16 359 4.8 9.7 0.00 0.00 0.00 55 1015.8
20260508023331 16 23 4.8 9.7 0.00 0.00 0.00 56 1015.9
20260508022830 16 359 6.4 9.7 0.00 0.00 0.00 57 1015.9
20260508022329 16 335 6.4 11.3 0.00 0.00 0.00 56 1015.9
20260508021828 16 349 9.7 14.5 0.00 0.00 0.00 58 1016.0
20260508021329 16 345 9.7 14.5 0.00 0.00 0.00 56 1016.0
20260508021110 16 26 9.7 14.5 0.00 0.00 0.00 53 1016.0
20260508020331 17 13 6.4 14.5 0.00 0.00 0.00 60 1016.0
20260508015832 17 4 4.8 8.0 0.00 0.00 0.00 57 1016.0
20260508015329 17 4 4.8 9.7 0.00 0.00 0.00 58 1016.0
20260508014830 17 9 6.4 9.7 0.00 0.00 0.00 57 1016.0
20260508014329 17 344 4.8 8.0 0.00 0.00 0.00 54 1016.0
20260508013829 17 359 6.4 9.7 0.00 0.00 0.00 56 1016.0
20260508013329 17 344 8.0 12.9 0.00 0.00 0.00 56 1016.0
20260508012828 17 359 9.7 12.9 0.00 0.00 0.00 55 1016.0
20260508012330 17 9 8.0 11.3 0.00 0.00 0.00 48 1016.0
20260508011823 17 26 6.4 9.7 0.00 0.00 0.00 49 1016.4
20260508011317 17 359 4.8 8.0 0.00 0.00 0.00 47 1016.4
20260508010809 17 21 4.8 8.0 0.00 0.00 0.00 50 1016.4
20260508004746 17 9 6.4 9.7 0.00 0.00 0.00 53 1016.5
20260508004235 17 4 6.4 9.7 0.00 0.00 0.00 52 1016.5
20260508003733 17 351 4.8 8.0 0.00 0.00 0.00 49 1016.5
20260508003516 17 14 8.0 11.3 0.00 0.00 0.00 53 1016.6
20260508002735 16 9 9.7 11.3 0.00 0.00 0.00 52 1016.6
20260508002233 16 21 9.7 11.3 0.00 0.00 0.00 53 1016.6
20260508001730 16 20 9.7 11.3 0.00 0.00 0.00 53 1016.7
20260508001517 16 15 9.7 11.3 0.00 0.00 0.00 51 1016.7
20260508000729 16 9 9.7 11.3 0.00 0.00 0.00 54 1016.7
20260508000229 16 9 9.7 14.5 0.00 0.00 0.00 55 1016.9
20260507235730 16 9 11.3 14.5 0.00 0.00 0.00 55 1016.9
20260507235230 16 9 11.3 14.5 0.00 0.00 0.00 54 1016.9
20260507234730 16 15 11.3 14.5 0.00 0.00 0.00 53 1017.1
20260507234230 16 9 11.3 14.5 0.00 0.00 0.00 54 1017.1
20260507233730 16 15 12.9 17.7 0.00 0.00 0.00 58 1017.1
20260507233517 16 15 14.5 17.7 0.00 0.00 0.00 57 1017.2
20260507232732 16 354 16.1 19.3 0.00 0.00 0.00 59 1017.2
20260507232234 16 9 12.9 19.3 0.00 0.00 0.00 56 1017.2
20260507232014 16 4 12.9 17.7 0.00 0.00 0.00 53 1017.5
20260507231230 16 359 14.5 17.7 0.00 0.00 0.00 55 1017.5
20260507230730 16 9 12.9 17.7 0.00 0.00 0.00 55 1017.5
20260507230230 16 337 12.9 17.7 0.00 0.00 0.00 60 1017.6
20260507225729 15 4 14.5 17.7 0.00 0.00 0.00 60 1017.6
20260507225517 15 4 14.5 17.7 0.00 0.00 0.00 56 1017.6
20260507224731 15 9 14.5 19.3 0.00 0.00 0.00 58 1017.6
20260507224230 15 14 14.5 19.3 0.00 0.00 0.00 57 1017.6
20260507223729 15 13 14.5 19.3 0.00 0.00 0.00 56 1017.6
20260507223230 15 13 16.1 19.3 0.00 0.00 0.00 55 1017.9
20260507223013 15 28 16.1 19.3 0.00 0.00 0.00 58 1017.9
20260507222231 15 9 16.1 19.3 0.00 0.00 0.00 59 1017.9
20260507221730 15 21 14.5 20.9 0.00 0.00 0.00 58 1018.1
20260507221525 15 9 14.5 20.9 0.00 0.00 0.00 59 1018.1
20260507221027 15 9 14.5 19.3 0.00 0.00 0.00 59 1018.1
20260507220536 15 9 14.5 17.7 0.00 0.00 0.00 56 1018.2
20260507215729 15 9 14.5 19.3 0.00 0.00 0.00 57 1018.2
20260507215523 15 9 16.1 19.3 0.00 0.00 0.00 57 1018.2
20260507214728 15 15 17.7 20.9 0.00 0.00 0.00 58 1018.2
20260507214230 15 14 19.3 22.5 0.00 0.00 0.00 60 1018.2
20260507213732 14 4 19.3 22.5 0.00 0.00 0.00 60 1018.2
20260507213228 15 4 17.7 22.5 0.00 0.00 0.00 59 1018.5
20260507212731 15 13 16.1 22.5 0.00 0.00 0.00 61 1018.5
20260507212232 15 4 16.1 24.1 0.00 0.00 0.00 59 1018.5
20260507211733 14 344 17.7 24.1 0.00 0.00 0.00 61 1018.6
20260507211229 14 15 19.3 24.1 0.00 0.00 0.00 61 1018.6
20260507210732 14 9 19.3 22.5 0.00 0.00 0.00 61 1018.6
20260507210230 14 16 17.7 22.5 0.00 0.00 0.00 62 1018.7
20260507205730 14 4 16.1 19.3 0.00 0.00 0.00 62 1018.7
20260507205231 14 4 14.5 19.3 0.00 0.00 0.00 62 1018.7
20260507204729 14 9 12.9 19.3 0.00 0.00 0.00 61 1018.9
20260507204228 14 19 14.5 19.3 0.00 0.00 0.00 60 1018.9
20260507203731 14 9 14.5 19.3 0.00 0.00 0.00 60 1018.9
20260507203230 14 4 14.5 20.9 0.00 0.00 0.00 61 1019.0
20260507203021 14 9 14.5 20.9 0.00 0.00 0.00 60 1019.0
20260507202230 15 351 12.9 20.9 0.00 0.00 0.00 60 1019.0
20260507201728 15 23 9.7 20.9 0.00 0.00 0.00 58 1019.1
20260507201229 16 359 4.8 20.9 0.00 0.00 0.00 54 1019.1
20260507200733 16 125 4.8 12.9 0.00 0.00 0.00 53 1019.1
20260507200230 15 201 4.8 12.9 0.00 0.00 0.00 53 1019.2
20260507195731 15 197 4.8 9.7 0.00 0.00 0.00 54 1019.2
20260507195229 15 200 4.8 11.3 0.00 0.00 0.00 53 1019.2
20260507194733 15 217 3.2 11.3 0.00 0.00 0.00 52 1019.4
20260507194229 15 148 3.2 6.4 0.00 0.00 0.00 53 1019.4
20260507193730 15 179 4.8 11.3 0.00 0.00 0.00 55 1019.4
20260507193208 15 204 4.8 11.3 0.00 0.00 0.00 55 1019.5
20260507192710 15 196 3.2 9.7 0.00 0.00 0.00 55 1019.5
20260507192210 15 212 3.2 4.8 0.00 0.00 0.00 56 1019.5
20260507191711 14 147 1.6 4.8 0.00 0.00 0.00 59 1019.6
20260507191209 13 353 4.8 11.3 0.00 0.00 0.00 60 1019.6
20260507190950 13 277 6.4 11.3 0.00 0.00 0.00 63 1019.6
20260507190209 13 17 6.4 9.7 0.00 0.00 0.00 64 1019.6
20260507185731 13 343 4.8 11.3 0.00 0.00 0.00 64 1019.6
20260507184705 13 354 4.8 11.3 0.00 0.00 0.00 63 1019.7
20260507184202 13 329 3.2 8.0 0.00 0.00 0.00 59 1019.7
20260507183702 13 359 3.2 9.7 0.00 0.00 0.00 60 1019.7
20260507183228 13 213 3.2 9.7 0.00 0.00 0.00 60 1019.7
20260507182208 13 264 4.8 9.7 0.00 0.00 0.00 61 1019.7
20260507181712 13 235 4.8 9.7 0.00 0.00 0.00 60 1019.8
20260507181157 13 234 3.2 8.0 0.00 0.00 0.00 61 1019.8
20260507180646 13 265 1.6 6.4 0.00 0.00 0.00 62 1019.8
20260507180134 13 211 1.6 6.4 0.00 0.00 0.00 63 1020.1
20260507175912 12 213 4.8 11.3 0.00 0.00 0.00 64 1020.1
20260507175131 12 202 4.8 11.3 0.00 0.00 0.00 64 1020.1
20260507174629 12 241 4.8 11.3 0.00 0.00 0.00 64 1020.1
20260507174417 12 247 6.4 11.3 0.00 0.00 0.00 64 1020.1
20260507173631 12 301 6.4 11.3 0.00 0.00 0.00 65 1020.1
20260507173130 12 277 6.4 11.3 0.00 0.00 0.00 64 1020.1
20260507172629 12 269 6.4 14.5 0.00 0.00 0.00 64 1020.1
20260507172419 13 265 4.8 14.5 0.00 0.00 0.00 64 1020.1
20260507171920 13 235 3.2 8.0 0.00 0.00 0.00 62 1020.1
20260507171409 12 155 3.2 9.7 0.00 0.00 0.00 64 1020.1
20260507170610 12 190 3.2 9.7 0.00 0.00 0.00 66 1020.1
20260507170109 11 160 3.2 9.7 0.00 0.00 0.00 68 1020.2
20260507165846 11 165 3.2 6.4 0.00 0.00 0.00 68 1020.2
20260507165129 11 204 3.2 6.4 0.00 0.00 0.00 68 1020.2
20260507164111 11 246 3.2 6.4 0.00 0.00 0.00 68 1020.2
20260507163608 11 262 1.6 6.4 0.00 0.00 0.00 68 1020.2
20260507163108 11 281 1.6 6.4 0.00 0.00 0.00 69 1020.2
20260507162609 11 179 3.2 6.4 0.00 0.00 0.00 69 1020.2
20260507162107 11 228 1.6 6.4 0.00 0.00 0.00 69 1020.2
20260507161843 11 209 1.6 6.4 0.00 0.00 0.00 69 1020.3
20260507161346 11 9 1.6 4.8 0.00 0.00 0.00 69 1020.3
20260507160846 11 119 3.2 6.4 0.00 0.00 0.00 70 1020.3
20260507160105 11 240 1.6 6.4 0.00 0.00 0.00 70 1020.4
20260507155538 11 140 1.6 6.4 0.00 0.00 0.00 70 1020.4
20260507155033 11 169 3.2 6.4 0.00 0.00 0.00 70 1020.4
20260507154537 11 234 1.6 4.8 0.00 0.00 0.00 70 1020.4
20260507154309 11 76 1.6 4.8 0.00 0.00 0.00 71 1020.4
20260507153527 11 128 1.6 4.8 0.00 0.00 0.00 72 1020.6
20260507153021 11 281 1.6 3.2 0.00 0.00 0.00 71 1020.6
20260507152516 11 240 1.6 3.2 0.00 0.00 0.00 71 1020.6
20260507152010 11 217 1.6 3.2 0.00 0.00 0.00 72 1020.6
20260507151509 11 232 1.6 3.2 0.00 0.00 0.00 72 1020.6
20260507151011 10 116 1.6 3.2 0.00 0.00 0.00 72 1020.6
20260507150505 10 113 1.6 4.8 0.00 0.00 0.00 73 1020.5
20260507150237 10 303 1.6 4.8 0.00 0.00 0.00 73 1020.5
20260507145501 10 281 3.2 6.4 0.00 0.00 0.00 72 1020.5
20260507145243 10 296 4.8 6.4 0.00 0.00 0.00 72 1020.4
20260507144804 10 296 3.2 6.4 0.00 0.00 0.00 72 1020.4
20260507143450 10 13 1.6 4.8 0.00 0.00 0.00 73 1020.4
20260507143229 10 199 1.6 4.8 0.00 0.00 0.00 73 1020.4
20260507142439 10 231 3.2 4.8 0.00 0.00 0.00 74 1020.4
20260507141935 10 292 3.2 6.4 0.00 0.00 0.00 74 1020.3
20260507141434 10 304 3.2 8.0 0.00 0.00 0.00 74 1020.3
20260507140932 10 284 4.8 8.0 0.00 0.00 0.00 74 1020.3
20260507140431 10 333 4.8 9.7 0.00 0.00 0.00 73 1020.2
20260507135929 10 294 4.8 9.7 0.00 0.00 0.00 73 1020.2
20260507135431 10 317 3.2 8.0 0.00 0.00 0.00 73 1020.2
20260507134929 10 317 3.2 8.0 0.00 0.00 0.00 74 1020.2
20260507134433 10 339 3.2 4.8 0.00 0.00 0.00 73 1020.2
20260507134212 10 337 3.2 4.8 0.00 0.00 0.00 74 1020.2
20260507133706 10 359 3.2 4.8 0.00 0.00 0.00 74 1020.1
20260507132931 10 36 3.2 4.8 0.00 0.00 0.00 74 1020.1
20260507132434 10 325 3.2 6.4 0.00 0.00 0.00 73 1020.1
20260507131930 10 335 4.8 6.4 0.00 0.00 0.00 73 1020.2
20260507131421 10 336 4.8 8.0 0.00 0.00 0.00 73 1020.2
20260507130919 10 319 4.8 9.7 0.00 0.00 0.00 73 1020.2
20260507130418 10 359 4.8 9.7 0.00 0.00 0.00 72 1020.2
20260507130154 10 313 4.8 8.0 0.00 0.00 0.00 73 1020.2
20260507125418 10 347 3.2 8.0 0.00 0.00 0.00 73 1020.2
20260507124917 10 327 3.2 9.7 0.00 0.00 0.00 73 1020.2
20260507124415 10 285 4.8 9.7 0.00 0.00 0.00 74 1020.2
20260507123908 10 317 4.8 9.7 0.00 0.00 0.00 73 1020.2
20260507123408 10 327 4.8 6.4 0.00 0.00 0.00 74 1020.2
20260507123144 10 289 3.2 6.4 0.00 0.00 0.00 75 1020.2
20260507122642 10 337 3.2 6.4 0.00 0.00 0.00 74 1020.2
20260507122137 10 303 3.2 4.8 0.00 0.00 0.00 73 1020.2
20260507121401 10 332 1.6 4.8 0.00 0.00 0.00 74 1020.2
20260507120902 10 323 3.2 4.8 0.00 0.00 0.00 74 1020.2
20260507120401 10 344 3.2 6.4 0.00 0.00 0.00 73 1020.3
20260507120156 10 322 4.8 8.0 0.00 0.00 0.00 73 1020.3
20260507115648 10 335 6.4 8.0 0.00 0.00 0.00 73 1020.3
20260507114850 10 337 6.4 9.7 0.00 0.00 0.00 73 1020.4
20260507114350 10 304 4.8 9.7 0.00 0.00 0.00 73 1020.4
20260507113849 10 354 3.2 8.0 0.00 0.00 0.00 73 1020.4
20260507113349 10 341 3.2 8.0 0.00 0.00 0.00 73 1020.5
20260507112847 10 337 3.2 4.8 0.00 0.00 0.00 74 1020.5
20260507112408 10 346 3.2 4.8 0.00 0.00 0.00 73 1020.5
20260507111345 10 302 1.6 4.8 0.00 0.00 0.00 74 1020.4
20260507110835 10 306 1.6 3.2 0.00 0.00 0.00 74 1020.4
20260507110332 10 4 1.6 3.2 0.00 0.00 0.00 74 1020.5
20260507110104 11 344 1.6 4.8 0.00 0.00 0.00 75 1020.5
20260507105331 11 281 3.2 4.8 0.00 0.00 0.00 74 1020.5
20260507104823 11 240 3.2 6.4 0.00 0.00 0.00 74 1020.5
20260507104327 11 256 3.2 6.4 0.00 0.00 0.00 74 1020.5
20260507103823 11 266 3.2 6.4 0.00 0.00 0.00 74 1020.5
20260507103322 11 254 1.6 6.4 0.00 0.00 0.00 75 1020.5